Location: Birkenwerder
(52.6919°N, 13.2774°E)
Time: 23:58:42
(UTC+00:00)

Cosmos 1570 Rocket - Pass Details

Date: 09 October 2020
Orbit: 763 x 788 km, 74.1° (Epoch: 24 October)

Event Time Altitude Azimuth Distance (km) Brightness Sun altitude
Exits shadow 02:47:51 21° 321° (NW) 1,728 5.6 -23.8°
Drops below altitude 10° 02:51:42 10° 7° (N) 2,364 6.9 -23.3°
Sets 02:54:43 0° 23° (NNE) 3,294 7.9 -22.9°
